TimeCST,TemperatureF,Dew PointF,Humidity,Sea Level PressureIn,VisibilityMPH,Wind Direction,Wind SpeedMPH,Gust SpeedMPH,PrecipitationIn,Events,Conditions,WindDirDegrees,DateUTC
12:53 AM,48.0,35.1,61,29.91,10.0,SSE,15.0,-,N/A,,Clear,160,2012-11-19 06:53:00
1:53 AM,46.0,35.1,66,29.90,10.0,SSE,13.8,21.9,N/A,,Clear,160,2012-11-19 07:53:00
2:53 AM,45.0,35.1,68,29.92,10.0,SSE,12.7,19.6,N/A,,Clear,160,2012-11-19 08:53:00
3:53 AM,45.0,35.1,68,29.93,10.0,South,13.8,-,N/A,,Clear,170,2012-11-19 09:53:00
4:53 AM,41.0,33.1,73,29.94,10.0,South,8.1,-,N/A,,Clear,180,2012-11-19 10:53:00
5:53 AM,39.9,33.1,77,29.95,10.0,South,10.4,-,N/A,,Clear,180,2012-11-19 11:53:00
6:53 AM,35.1,30.9,85,29.97,9.0,SSW,8.1,-,N/A,,Clear,200,2012-11-19 12:53:00
7:53 AM,33.1,30.0,89,29.99,6.0,SW,5.8,-,N/A,,Clear,230,2012-11-19 13:53:00
8:53 AM,37.0,32.0,82,30.01,6.0,WNW,6.9,-,N/A,,Haze,300,2012-11-19 14:53:00
9:53 AM,41.0,34.0,76,30.01,8.0,North,6.9,-,N/A,,Clear,350,2012-11-19 15:53:00
10:53 AM,45.0,34.0,65,30.04,9.0,NW,10.4,-,N/A,,Clear,320,2012-11-19 16:53:00
11:53 AM,46.9,35.1,63,30.04,10.0,NW,10.4,-,N/A,,Clear,310,2012-11-19 17:53:00
12:53 PM,48.9,35.1,59,30.04,10.0,NW,11.5,-,N/A,,Clear,320,2012-11-19 18:53:00
1:53 PM,48.9,35.1,59,30.06,10.0,NW,12.7,-,N/A,,Clear,320,2012-11-19 19:53:00
2:53 PM,48.0,35.1,61,30.08,10.0,NNW,12.7,-,N/A,,Clear,330,2012-11-19 20:53:00
3:53 PM,45.0,34.0,65,30.11,10.0,NNW,12.7,-,N/A,,Clear,330,2012-11-19 21:53:00
4:53 PM,39.9,30.9,70,30.14,10.0,North,8.1,-,N/A,,Clear,360,2012-11-19 22:53:00
5:53 PM,35.1,28.9,78,30.14,10.0,NW,3.5,-,N/A,,Clear,320,2012-11-19 23:53:00
6:53 PM,32.0,28.0,85,30.17,9.0,NNW,5.8,-,N/A,,Clear,330,2012-11-20 00:53:00
7:53 PM,28.9,26.1,89,30.18,8.0,NW,3.5,-,N/A,,Clear,320,2012-11-20 01:53:00
8:53 PM,28.9,25.0,85,30.19,8.0,NW,4.6,-,N/A,,Clear,320,2012-11-20 02:53:00
9:53 PM,27.0,24.1,89,30.19,5.0,Calm,Calm,-,N/A,,Clear,0,2012-11-20 03:53:00
10:53 PM,24.1,21.0,88,30.18,10.0,WSW,3.5,-,N/A,,Clear,240,2012-11-20 04:53:00
11:53 PM,24.1,19.0,81,30.19,10.0,Calm,Calm,-,N/A,,Partly Cloudy,0,2012-11-20 05:53:00
11:55 PM,24.8,19.4,80,30.16,0.2,Calm,Calm,-,N/A,,Unknown,0,2012-11-20 05:55:00